Terug naar catalogus

COSMOS 394

ActiefMilitairVLEO
NORAD 4922·PAYLOAD·🇷🇺 Russia

Gelanceerd Feb 9, 1971 vanaf Plesetsk Cosmodrome

Loading…

Volgende Passages (komende 24 uur)

TLE

VersSource: Space-Track

Epoch: Sep 14, 2026, 11:56 UTC

1 04922U 71010A   26257.49760559  .00004291  00000-0  82317-4 0  9994
2 04922  65.8209 342.5066 0006446 231.2443 128.8132 15.49398594 71857

Volg COSMOS 394 in realtime met AllMySat

Download on the App Store